Location: Lafig�re
(44.4503°N, 4.0357°E)
Time: 08:45:47
(UTC+00:00)

deb Explorer IX - Pass Details

Date: 25 January 2021
Orbit: 537 x 1103 km, 38.8° (Epoch: 23 February)

Event Time Altitude Azimuth Distance (km) Brightness Sun altitude
Rises 17:41:26 0° 244° (WSW) 3,747 ? -10.5°
Reaches altitude 10° 17:44:23 10° 238° (WSW) 2,723 ? -11.0°
Maximum altitude 17:50:30 43° 169° (S) 1,213 ? -12.0°
Enters shadow 17:55:00 14° 103° (ESE) 2,093 ? -12.8°
